Simultaneous Nadir Overpasses (SNOs) Predictions

Prediction of SNOs between GOES-15 and TERRA Satellite Orbit:

Table of predicted SNOs for the next 14.0 days since TLE Epoch: 9/26/2020
Index Date Time (GOES-15) GOES-15 Lat,Lon TERRA Lat,Lon Distance(km) Time Diff (sec)
1 09/27/2020 06:44:59 -0.09,-128.41 0.83,-124.11 489.42 80
2 09/27/2020 19:08:54 0.10,-128.37 0.30,-129.26 101.54 80
3 09/29/2020 18:54:03 0.10,-128.39 -0.35,-126.31 236.54 80
4 09/30/2020 07:18:07 -0.11,-128.44 -0.77,-131.50 347.70 80
5 10/02/2020 07:05:56 -0.11,-128.46 -0.13,-128.55 9.86 80
6 10/04/2020 06:51:05 -0.10,-128.47 0.52,-125.59 327.56 80
7 10/04/2020 19:15:00 0.11,-128.42 0.60,-130.74 263.82 80
8 10/06/2020 19:00:09 0.12,-128.43 -0.05,-127.79 72.93 80
9 10/08/2020 18:47:57 0.12,-128.43 -0.64,-124.83 408.84 80
10 10/09/2020 07:12:01 -0.13,-128.48 -0.47,-130.02 176.00 80
